When you browse on this site, cookies collect data to enhance your experience and personalize the content and advertising you see.
Visit our Privacy Policy to learn more. By continuing to use the site, you agree to this use of cookies and data.
  • In Hungary
  • List of Countries
  • For 7 days
  • Water Temperature
  • Weather Map
  • News
  • Weather Widgets
  • user-avatar
    Login

    Hourly Weather Balod

    Today, 27 February, Thursday

    Time Temperature Precipitation Wind Pressure Humidity
    00:00 +20°C° 0 mm 0 mps 733 mmHg 31%
    01:00 +19°C° 0 mm 0 mps 733 mmHg 32%
    02:00 +21°C° 0 mm 1 mps 732 mmHg 33%
    03:00 +20°C° 0 mm 1 mps 732 mmHg 35%
    04:00 +20°C° 0 mm 1 mps 732 mmHg 36%
    05:00 +19°C° 0 mm 1 mps 732 mmHg 43%
    06:00 +21°C° 0 mm 1 mps 733 mmHg 40%
    07:00 +23°C° 0 mm 1 mps 734 mmHg 36%
    08:00 +24°C° 0 mm 2 mps 735 mmHg 33%
    09:00 +26°C° 0 mm 2 mps 734 mmHg 29%
    10:00 +28°C° 0 mm 2 mps 734 mmHg 26%
    11:00 +30°C° 0 mm 2 mps 734 mmHg 23%
    12:00 +31°C° 0 mm 2 mps 734 mmHg 21%
    13:00 +31°C° 0 mm 3 mps 733 mmHg 19%
    14:00 +33°C° 0 mm 3 mps 732 mmHg 18%
    15:00 +31°C° 0 mm 3 mps 731 mmHg 19%
    16:00 +30°C° 0 mm 2 mps 731 mmHg 21%
    17:00 +30°C° 0 mm 2 mps 731 mmHg 22%
    18:00 +28°C° 0 mm 2 mps 731 mmHg 24%
    19:00 +27°C° 0 mm 2 mps 732 mmHg 26%
    20:00 +25°C° 0 mm 2 mps 732 mmHg 28%
    21:00 +24°C° 0 mm 2 mps 732 mmHg 30%
    22:00 +24°C° 0 mm 2 mps 732 mmHg 31%
    23:00 +23°C° 0 mm 2 mps 732 mmHg 32%

    Tomorrow, 28 February, Friday

    Time Temperature Precipitation Wind Pressure Humidity
    00:00 +21°C° 0 mm 2 mps 731 mmHg 34%
    01:00 +22°C° 0 mm 1 mps 731 mmHg 35%
    02:00 +21°C° 0 mm 1 mps 731 mmHg 37%
    03:00 +21°C° 0 mm 1 mps 731 mmHg 37%
    04:00 +20°C° 0 mm 1 mps 731 mmHg 38%
    05:00 +20°C° 0 mm 1 mps 731 mmHg 39%
    06:00 +22°C° 0 mm 1 mps 732 mmHg 36%
    07:00 +23°C° 0 mm 1 mps 732 mmHg 33%
    08:00 +25°C° 0 mm 1 mps 733 mmHg 30%
    09:00 +28°C° 0 mm 1 mps 733 mmHg 26%
    10:00 +30°C° 0 mm 1 mps 733 mmHg 23%
    11:00 +33°C° 0 mm 1 mps 733 mmHg 19%
    12:00 +33°C° 0 mm 1 mps 732 mmHg 18%
    13:00 +35°C° 0 mm 2 mps 731 mmHg 17%
    14:00 +35°C° 0 mm 2 mps 730 mmHg 16%
    15:00 +34°C° 0 mm 2 mps 730 mmHg 17%
    16:00 +34°C° 0 mm 3 mps 730 mmHg 18%
    17:00 +33°C° 0 mm 3 mps 729 mmHg 20%
    18:00 +30°C° 0 mm 3 mps 730 mmHg 22%
    19:00 +28°C° 0 mm 3 mps 730 mmHg 25%
    20:00 +27°C° 0 mm 3 mps 731 mmHg 27%
    21:00 +26°C° 0 mm 2 mps 731 mmHg 29%
    22:00 +25°C° 0 mm 2 mps 731 mmHg 30%
    23:00 +24°C° 0 mm 2 mps 731 mmHg 32%

    Day after tomorrow, 29 February, Saturday

    Time Temperature Precipitation Wind Pressure Humidity
    00:00 +24°C° 0 mm 2 mps 730 mmHg 33%
    01:00 +23°C° 0 mm 2 mps 730 mmHg 34%
    02:00 +23°C° 0 mm 1 mps 729 mmHg 36%
    03:00 +22°C° 0 mm 1 mps 730 mmHg 37%
    04:00 +22°C° 0 mm 1 mps 730 mmHg 37%
    05:00 +21°C° 0 mm 2 mps 730 mmHg 38%
    06:00 +23°C° 0 mm 1 mps 730 mmHg 36%
    07:00 +25°C° 0 mm 1 mps 731 mmHg 33%
    08:00 +25°C° 0 mm 0 mps 732 mmHg 30%
    09:00 +27°C° 0 mm 0 mps 732 mmHg 26%
    10:00 +32°C° 0 mm 1 mps 732 mmHg 23%
    11:00 +35°C° 0 mm 1 mps 732 mmHg 19%
    12:00 +35°C° 0 mm 1 mps 731 mmHg 17%
    13:00 +36°C° 0 mm 1 mps 730 mmHg 16%
    14:00 +37°C° 0 mm 2 mps 730 mmHg 15%
    15:00 +36°C° 0 mm 2 mps 729 mmHg 16%
    16:00 +35°C° 0 mm 3 mps 729 mmHg 17%
    17:00 +35°C° 0 mm 3 mps 729 mmHg 17%
    18:00 +33°C° 0 mm 3 mps 729 mmHg 20%
    19:00 +30°C° 0 mm 3 mps 729 mmHg 23%
    20:00 +28°C° 0 mm 3 mps 730 mmHg 25%
    21:00 +27°C° 0 mm 2 mps 730 mmHg 27%
    22:00 +27°C° 0 mm 2 mps 730 mmHg 28%
    23:00 +26°C° 0 mm 2 mps 730 mmHg 30%

    1 March, Sunday

    Time Temperature Precipitation Wind Pressure Humidity
    00:00 +25°C° 0 mm 2 mps 730 mmHg 31%
    01:00 +25°C° 0 mm 1 mps 729 mmHg 32%
    02:00 +24°C° 0 mm 1 mps 729 mmHg 33%
    03:00 +24°C° 0 mm 1 mps 729 mmHg 33%
    04:00 +24°C° 0 mm 1 mps 730 mmHg 34%
    05:00 +23°C° 0 mm 1 mps 730 mmHg 34%
    06:00 +25°C° 0 mm 1 mps 731 mmHg 33%
    07:00 +26°C° 0 mm 1 mps 731 mmHg 32%
    08:00 +28°C° 0 mm 2 mps 732 mmHg 31%
    09:00 +30°C° 0 mm 2 mps 732 mmHg 29%
    10:00 +32°C° 0 mm 2 mps 732 mmHg 27%
    11:00 +35°C° 0 mm 2 mps 732 mmHg 25%
    12:00 +36°C° 0 mm 2 mps 731 mmHg 24%
    13:00 +37°C° 0 mm 2 mps 730 mmHg 22%
    14:00 +37°C° 0 mm 2 mps 729 mmHg 21%
    15:00 +36°C° 0 mm 2 mps 729 mmHg 22%
    16:00 +34°C° 0 mm 1 mps 729 mmHg 24%
    17:00 +33°C° 0 mm 1 mps 728 mmHg 26%
    18:00 +32°C° 0.2 mm 2 mps 729 mmHg 30%
    19:00 +30°C° 0.2 mm 2 mps 729 mmHg 34%
    20:00 +28°C° 0.2 mm 3 mps 730 mmHg 39%
    21:00 +27°C° 0.2 mm 3 mps 730 mmHg 42%
    22:00 +26°C° 0.2 mm 2 mps 730 mmHg 46%
    23:00 +25°C° 0.2 mm 2 mps 730 mmHg 50%

    2 March, Monday

    Time Temperature Precipitation Wind Pressure Humidity
    00:00 +25°C° 0.1 mm 2 mps 730 mmHg 51%
    01:00 +24°C° 0.1 mm 1 mps 729 mmHg 52%
    02:00 +24°C° 0.1 mm 1 mps 729 mmHg 54%
    03:00 +24°C° 0.1 mm 1 mps 729 mmHg 55%
    04:00 +23°C° 0.1 mm 1 mps 729 mmHg 57%
    05:00 +23°C° 0.1 mm 1 mps 729 mmHg 59%
    06:00 +24°C° 0 mm 2 mps 730 mmHg 54%
    07:00 +26°C° 0 mm 2 mps 731 mmHg 49%
    08:00 +27°C° 0 mm 2 mps 732 mmHg 45%
    09:00 +30°C° 0 mm 2 mps 732 mmHg 39%
    10:00 +33°C° 0 mm 3 mps 732 mmHg 33%
    11:00 +36°C° 0 mm 3 mps 732 mmHg 26%
    12:00 +36°C° 0 mm 3 mps 731 mmHg 25%
    13:00 +36°C° 0 mm 3 mps 730 mmHg 23%
    14:00 +36°C° 0 mm 2 mps 729 mmHg 22%
    15:00 +36°C° 0 mm 2 mps 729 mmHg 22%
    16:00 +35°C° 0 mm 2 mps 729 mmHg 23%
    17:00 +34°C° 0 mm 1 mps 728 mmHg 23%
    18:00 +32°C° 0 mm 1 mps 729 mmHg 26%
    19:00 +31°C° 0 mm 2 mps 729 mmHg 29%
    20:00 +30°C° 0 mm 2 mps 730 mmHg 31%
    21:00 +29°C° 0 mm 2 mps 730 mmHg 32%
    22:00 +29°C° 0 mm 1 mps 730 mmHg 33%
    23:00 +29°C° 0 mm 1 mps 730 mmHg 34%

    3 March, Tuesday

    Time Temperature Precipitation Wind Pressure Humidity
    00:00 +28°C° 0 mm 1 mps 729 mmHg 35%
    01:00 +28°C° 0 mm 2 mps 729 mmHg 36%
    02:00 +27°C° 0 mm 2 mps 729 mmHg 37%
    03:00 +27°C° 0 mm 2 mps 729 mmHg 38%
    04:00 +26°C° 0 mm 2 mps 729 mmHg 39%
    05:00 +26°C° 0 mm 2 mps 729 mmHg 40%
    06:00 +27°C° 0 mm 2 mps 730 mmHg 38%
    07:00 +28°C° 0 mm 3 mps 730 mmHg 37%
    08:00 +29°C° 0 mm 3 mps 731 mmHg 35%
    09:00 +33°C° 0 mm 4 mps 731 mmHg 30%
    10:00 +35°C° 0 mm 4 mps 731 mmHg 26%
    11:00 +39°C° 0 mm 5 mps 731 mmHg 21%
    12:00 +38°C° 0 mm 4 mps 730 mmHg 22%
    13:00 +37°C° 0 mm 4 mps 729 mmHg 22%
    14:00 +37°C° 0 mm 4 mps 728 mmHg 23%
    15:00 +35°C° 0 mm 3 mps 728 mmHg 26%
    16:00 +34°C° 0 mm 3 mps 728 mmHg 30%
    17:00 +31°C° 0 mm 3 mps 728 mmHg 34%
    18:00 +31°C° 0 mm 3 mps 728 mmHg 35%
    19:00 +30°C° 0 mm 2 mps 729 mmHg 36%
    20:00 +29°C° 0 mm 2 mps 729 mmHg 37%
    21:00 +29°C° 0 mm 2 mps 729 mmHg 38%
    22:00 +28°C° 0 mm 2 mps 729 mmHg 39%
    23:00 +28°C° 0 mm 2 mps 729 mmHg 39%
    Show more